Weather History for Jaipur, India

Change the Weather History Date:

Friday, July 12, 2013

  Actual Average Record
Temperature  
Mean Temperature 84 °F -  
Max Temperature 89 °F - - ()
Min Temperature 80 °F - - ()
Cooling Degree Days 20    
Growing Degree Days 34 (Base 50)    
Moisture  
Dew Point 77 °F    
Average Humidity 80    
Maximum Humidity 89    
Minimum Humidity 65    
Precipitation  
Precipitation 0.08 in - - ()
Sea Level Pressure  
Sea Level Pressure 29.55 in    
Wind  
Wind Speed 5 mph ()    
Max Wind Speed 13 mph    
Max Gust Speed -    
Visibility 2.1 miles    
Events Rain , Thunderstorm    
T = Trace of Precipitation, MM = Missing Value Source: Averaged Metar Reports

Daily Weather History Graph

Daily Weather History Graph

Search for Another Location

Airport:

Trip Planner

Search our weather history database for the weather conditions in past years. The results will help you decide how hot, cold, wet, or windy it might be!

Date:

Astronomy

Jul. 12, 2013 Rise Set
Actual Time 5:41 AM IST 7:23 PM IST
Civil Twilight 5:15 AM IST 7:49 PM IST
Nautical Twilight 4:44 AM IST 8:20 PM IST
Astronomical Twilight 4:11 AM IST 8:53 PM IST
Moon 9:06 AM IST (7/12) 9:47 PM IST (7/12)
Length of Visible Light 14h 34m
Length of Day
13h 42m
Waxing Crescent, 14% of the Moon is Illuminated
Jul 12
Waxing Crescent
Jul 16
First Quarter
Jul 22
Full
Jul 29
Last Quarter
Aug 7
New

Hourly Weather History & Observations

Time (IST) Temp. Heat Index Dew Point Humidity Pressure Visibility Wind Dir Wind Speed Gust Speed Precip Events Conditions
12:00 AM 82.4 °F 89.5 °F 75.2 °F 79% 29.62 in 1.9 mi NNW 3.5 mph - N/A   Haze
1:00 AM 82.4 °F 89.5 °F 75.2 °F 79% 29.62 in 1.9 mi Variable 6.9 mph - N/A   Haze
2:00 AM 82.4 °F 89.5 °F 75.2 °F 79% 29.59 in 1.9 mi Variable 4.6 mph - N/A   Haze
3:00 AM 82.4 °F 89.5 °F 75.2 °F 79% 29.59 in 1.9 mi Variable 3.5 mph - N/A   Haze
4:00 AM 80.6 °F 87.1 °F 77.0 °F 89% 29.59 in 1.9 mi East 4.6 mph - N/A   Haze
5:00 AM 80.6 °F 87.1 °F 77.0 °F 89% 29.59 in 1.9 mi Calm Calm - N/A   Haze
5:30 AM 81 °F - 75 °F 78% 29.44 in 1 mi Calm Calm - -   Haze
6:00 AM 80.6 °F 86.2 °F 75.2 °F 84% 29.56 in 1.9 mi NE 4.6 mph - N/A   Haze
7:00 AM 82.4 °F 89.5 °F 75.2 °F 79% 29.59 in 1.9 mi NE 6.9 mph - N/A   Haze
8:00 AM 80.6 °F 87.1 °F 77.0 °F 89% 29.62 in 1.9 mi East 6.9 mph - N/A   Haze
8:30 AM 82 °F - 76 °F 78% 29.55 in 1 mi ENE 6.9 mph - -   Mist
9:00 AM 84.2 °F 94.1 °F 77.0 °F 79% 29.62 in 1.9 mi East 8.1 mph - N/A   Mostly Cloudy
10:00 AM 86.0 °F 99.3 °F 78.8 °F 79% 29.62 in 2.5 mi East 9.2 mph - N/A   Haze
11:00 AM 86.0 °F 99.3 °F 78.8 °F 79% 29.62 in 2.5 mi ENE 6.9 mph - N/A   Haze
11:30 AM 88 °F - 78 °F 65%  in 2 mi East 9.2 mph - -   Haze
1:00 PM 82.4 °F 90.9 °F 77.0 °F 84% 29.59 in 2.5 mi ENE 12.7 mph - N/A   Haze
1:30 PM 87 °F - 82 °F 81% 29.49 in 2 mi NE 6.9 mph - - Rain Light Drizzle
2:00 PM 86.0 °F 99.3 °F 78.8 °F 79% 29.56 in 2.5 mi NE 8.1 mph - N/A   Drizzle
2:30 PM 87 °F - 82 °F 81% 29.49 in 2 mi NE 6.9 mph - - Rain Light Drizzle
3:00 PM 87.8 °F 102.5 °F 78.8 °F 75% 29.56 in 2.5 mi NE 10.4 mph - N/A   Haze
4:00 PM 87.8 °F 102.5 °F 78.8 °F 75% 29.53 in 2.5 mi ENE 10.4 mph - N/A   Haze
5:00 PM 84.2 °F 94.1 °F 77.0 °F 79% 29.53 in 2.5 mi ENE 10.4 mph - N/A Thunderstorm Thunderstorm
5:30 PM 85 °F - 81 °F 84% 29.45 in 2 mi ENE 9.2 mph - - Thunderstorm Thunderstorm
6:00 PM 86.0 °F 99.3 °F 78.8 °F 79% 29.53 in 2.5 mi ENE 8.1 mph - N/A   Haze
7:00 PM 84.2 °F 96.1 °F 78.8 °F 84% 29.53 in 2.5 mi ENE 5.8 mph - N/A   Haze
7:30 PM 84.2 °F 96.1 °F 78.8 °F 84% 29.53 in 2.5 mi ENE 4.6 mph - N/A   Haze
8:00 PM 84.2 °F 94.1 °F 77.0 °F 79% 29.53 in 2.5 mi ENE 4.6 mph - N/A   Haze
8:30 PM 83 °F - 77 °F 78% 29.47 in 2 mi ENE 6.9 mph - -   Mist
8:30 PM 84.2 °F 96.1 °F 78.8 °F 84% 29.53 in 2.5 mi ENE 6.9 mph - N/A   Scattered Clouds
9:00 PM 84.2 °F 94.1 °F 77.0 °F 79% 29.56 in 2.5 mi ENE 5.8 mph - N/A   Scattered Clouds
10:00 PM 84.2 °F 94.1 °F 77.0 °F 79% 29.56 in 2.5 mi ENE 4.6 mph - N/A   Scattered Clouds
11:00 PM 82.4 °F 90.9 °F 77.0 °F 84% 29.59 in 2.5 mi ENE 4.6 mph - N/A   Scattered Clouds
11:30 PM 82 °F - 75 °F 75% 29.51 in 2 mi NE 11.2 mph - -   Mist